Regional Weather Roundup
Issued by NWS

Home | Current Version | Previous Version | Graphics & Text | Print | Product List | Glossary Off
Versions: 1 2 3 4 5 6 7 8 9 10 11 12 13 14 15 16 17 18 19 20 21 22 23 24 25 26 27 28 29 30 31 32 33 34 35 36 37 38 39 40 41 42 43 44 45 46 47 48 49 50

000
ASUS43 KDMX 141308
RWRIA

WEATHER ROUNDUP FOR IOWA
NATIONAL WEATHER SERVICE DES MOINES IA
700 AM CST SUN FEB 14 2016

NOTE: "FAIR" INDICATES FEW OR NO CLOUDS BELOW 12,000 FEET WITH NO
SIGNIFICANT WEATHER AND/OR OBSTRUCTIONS TO VISIBILITY.

* - THESE STATIONS ARE NOT NWS STATIONS...THUS NOT UNDER NWS
QUALITY CONTROL.  THEY ALSO DO NOT REPORT WEATHER SUCH
AS PRECIPITATION OR FOG.

IAZ001>003-012>014-020>022-031>034-043>046-141400-
   NORTHWEST IOWA

CITY           SKY/WX    TMP DP  RH WIND       PRES   REMARKS
CARROLL *        N/A     16  14  93 SE18      29.95F WCI  -1
CHEROKEE *     LGT SNOW  16  14  93 SE12G17   29.93F VSB 1   WCI   3
DENISON *      LGT SNOW  18  14  86 S13       29.90F WCI   4
LE MARS *      CLOUDY    18  16  93 SE13G18   29.91S FOG     WCI   4
ORANGE CITY *  LGT SNOW  16  14  93 SE10      29.89S WCI   3
SHELDON *      LGT SNOW  14  12  92 SE16      29.89F WCI  -2
SIOUX CITY     CLOUDY    19  12  74 SE14      29.90S WCI   6
SPENCER        LGT SNOW  13   8  81 SE18      29.94F VSB 3/4 WCI  -4
STORM LAKE *   CLOUDY    14  14 100 SE22      29.91F WCI  -4
$$

IAZ055>058-069>071-079>083-090>094-141400-
   SOUTHWEST IOWA

CITY           SKY/WX    TMP DP  RH WIND       PRES   REMARKS
ATLANTIC *     LGT SNOW  19  14  79 S12G18    29.95F WCI   7
AUDUBON *      LGT SNOW  18  12  79 S12G17    29.94F WCI   5
CLARINDA *     CLOUDY    21  14  73 S9G16     29.98F WCI  11
COUNCIL BLFS * CLOUDY    21   9  58 S14       29.91F WCI   8
CRESTON *      CLOUDY    18  14  86 SE20G25   29.97S WCI   1
HARLAN  *      LGT SNOW  18  16  93 S13       29.96F WCI   4
LAMONI         CLOUDY    17  14  88 SE15G21   29.99F WCI   2
RED OAK *      CLOUDY    21  14  73 SE14      29.95F WCI   8
SHENANDOAH *   CLOUDY    25   9  50 S16       29.96F WCI  12
$$

IAZ047>049-059>061-072>074-084-141400-
   CENTRAL IOWA

CITY           SKY/WX    TMP DP  RH WIND       PRES   REMARKS
AMES           LGT SNOW  15  12  88 SE13      30.02F FOG     WCI   1
ANKENY *       LGT SNOW  16  14  93 SE10      30.03F WCI   3
BOONE *        LGT SNOW  16  12  86 SE18G25   29.98F WCI  -1
CHARITON *     LGT SNOW  18  14  86 SE13      30.03F WCI   4
DES MOINES     LGT SNOW  17  12  80 SE14      30.03F VSB 1   WCI   3
GRINNELL*      LGT SNOW  16  14  93 SE15G23   30.06F WCI   1
KNOXVILLE *    LGT SNOW  16  12  86 SE12G18   30.04S VSB 3/4 WCI   3
MARSHALLTOWN   LGT SNOW  16  12  84 SE17G24   30.05S FOG     WCI   0
NEWTON *       LGT SNOW  16  14  93 SE22      30.05F VSB 1   WCI  -2
PELLA *        LGT SNOW  18  14  86 SE10      30.07F WCI   6
$$

IAZ004>006-015-016-023>025-035-036-141400-
   NORTH CENTRAL IOWA

CITY           SKY/WX    TMP DP  RH WIND       PRES   REMARKS
ALGONA *       LGT SNOW  14  12  92 SE20G28   29.97F WCI  -3
CLARION *      LGT SNOW  16  12  86 SE24G30   30.00F WCI  -3
ESTHERVILLE    FOG       13  11  92 SE23      29.95F VSB 3/4 WCI  -6
FORT DODGE *   CLOUDY    16   9  73 SE13G22   29.99F WCI   2
MASON CITY     LGT SNOW  13  10  88 SE17G26   30.03F FOG     WCI  -4
FOREST CITY *  MOCLDY    14  12  92 SE21      30.01F FOG     WCI  -4
WEBSTER CITY * LGT SNOW  16  12  86 SE23      29.98F WCI  -2
IOWA FALLS *   LGT SNOW  16  14  93 SE18G25   30.04S VSB 1   WCI  -1
$$

IAZ007>011-017>019-026>030-037>042-050>054-066-141400-
   NORTHEAST IOWA

CITY           SKY/WX    TMP DP  RH WIND       PRES   REMARKS
CEDAR RAPIDS   CLOUDY    16  13  88 SE15      30.10F WCI   1
CHARLES CITY * LGT SNOW  14  12  92 SE17G24   30.06F WCI  -3
CLINTON *      CLOUDY    17   8  67 E16       30.20F WCI   2
DUBUQUE        CLOUDY    13   7  77 SE15G26   30.15F WCI  -3
MONTICELLO *   CLOUDY    18   7  62 SE15G21   30.15F WCI   3
OELWEIN *      FLURRIES  14   9  79 SE18      30.10F WCI  -3
WATERLOO       CLOUDY    16  11  80 SE18G26   30.07F WCI   0
$$

IAZ064-065-067-068-078-141400-
   EAST CENTRAL IOWA

CITY           SKY/WX    TMP DP  RH WIND       PRES   REMARKS
DAVENPORT      CLOUDY    16   9  74 SE20G26   30.19F WCI  -1
IOWA CITY      CLOUDY    17  13  84 SE14      30.15F FOG     WCI   3
MT. PLEASANT * CLOUDY    19  16  86 SE12      30.14F WCI   7
MUSCATINE *    CLOUDY    18  12  79 SE14G23   30.15F WCI   4
QUAD CITIES    CLOUDY    17  10  74 SE14      30.20F WCI   3
$$

IAZ062-063-075>077-085>089-095>099-141400-
   SOUTHEAST IOWA

CITY           SKY/WX    TMP DP  RH WIND       PRES   REMARKS
BURLINGTON     CLOUDY    16  13  88 SE13      30.14F WCI   2
FAIRFIELD *    CLOUDY    16  12  86 SE14G21   30.11R WCI   1
FORT MADISON * CLOUDY    18  12  79 SE12      30.13F WCI   5
KEOKUK *       CLOUDY    19  14  79 SE12G21   30.13F WCI   7
OSKALOOSA *    LGT SNOW  16  14  93 SE15      30.07F WCI   1
CENTERVILLE *  LGT SNOW  18  16  93 SE10      30.07F WCI   6
OTTUMWA        LGT SNOW  17  14  88 SE12      30.08F FOG     WCI   4
WASHINGTON *   CLOUDY    16  14  93 SE17G24   30.14S WCI   0
$$

ABBREVIATIONS USED IN REMARKS
   TC - TEMPERATURES IN CELSIUS
  WCI - WIND CHILL INDEX
   HX - HEAT INDEX
  VSB - VISIBILITY
$$




USA.gov is the U.S. government's official web portal to all federal, state and local government web resources and services.